Date String (YYYY-MM-DD hh:mm:ss) UTC,Instrument flags,absolute air pressure of the measurement (hPa),sample flow rate (lpm),inlet stack bypass flow (lpm),air temperature of the measurement (°C),ambient temperature measured by the external sensor (°C),aerosol sample conditioner tube jacket temperature (°C),OPC LED temperature (°C),internal box temperature (°C),relative humidity of the measurement (%),span deviation,mass concentration of particles derived from Lorenz-Mie calculation of OPC scattering (μg/m³),mass concentration of particles derived from Lorenz-Mie calculation of OPC scattering (μg/m³),mass concentration of particles derived from Lorenz-Mie calculation of OPC scattering (μg/m³)
DateTimeUTC,F1_M11,P_M11,Q1_M11,Q2_M11,T1_M11,T2_M11,T3_M11,T4_M11,T5_M11,U1_M11,ZSPAN_M11,X0_M11,X2_M11,X1_M11
2023-12-31 06:00:00,SystemResetWarning,0830.2,5.00,000.00,023.3,022.0,000.0,031.7,024.7,9.6,0000.0,0009.29,0004.28,0003.68
2023-12-31 06:01:00,SystemResetWarning,0830.2,5.00,000.00,023.3,022.0,000.0,031.7,024.7,9.6,0000.0,0009.01,0004.25,0003.69
2023-12-31 06:02:00,SystemResetWarning,0830.2,5.00,000.00,023.3,022.0,000.0,031.7,024.7,9.6,0000.0,0009.24,0004.25,0003.70
2023-12-31 06:03:00,SystemResetWarning,0830.1,5.01,000.00,023.3,022.0,000.0,031.7,024.7,9.6,0000.0,0009.18,0004.26,0003.70
2023-12-31 06:04:00,SystemResetWarning,0830.1,5.00,000.00,023.3,022.0,000.0,031.7,024.7,9.6,0000.0,0009.90,0004.28,0003.71
2023-12-31 06:05:00,SystemResetWarning,0830.1,5.00,000.00,023.3,022.0,000.0,031.7,024.7,9.6,0000.0,0010.30,0004.31,0003.72
2023-12-31 06:06:00,SystemResetWarning,0830.1,5.00,000.00,023.3,022.0,000.0,031.7,024.6,9.7,0000.0,0010.57,0004.30,0003.73
2023-12-31 06:07:00,SystemResetWarning,0830.1,5.00,000.00,023.3,022.0,000.0,031.7,024.6,9.7,0000.0,0010.86,0004.31,0003.74
2023-12-31 06:08:00,SystemResetWarning,0830.1,5.00,000.00,023.3,022.0,000.0,031.7,024.6,9.6,0000.0,0010.53,0004.31,0003.75
2023-12-31 06:09:00,SystemResetWarning,0830.1,4.99,000.00,023.3,022.0,000.0,031.7,024.6,9.6,0000.0,0009.84,0004.32,0003.78
2023-12-31 06:10:00,SystemResetWarning,0830.1,4.99,000.00,023.3,022.0,000.0,031.6,024.7,9.6,0000.0,0010.02,0004.34,0003.79
2023-12-31 06:11:00,SystemResetWarning,0830.1,5.00,000.00,023.3,022.0,000.0,031.6,024.7,9.7,0000.0,0010.46,0004.33,0003.79
2023-12-31 06:12:00,SystemResetWarning,0830.1,5.01,000.00,023.3,022.0,000.0,031.6,024.7,9.7,0000.0,0011.09,0004.32,0003.79
2023-12-31 06:13:00,SystemResetWarning,0830.1,5.01,000.00,023.3,022.0,000.0,031.6,024.6,9.7,0000.0,0010.59,0004.32,0003.78
2023-12-31 06:14:00,SystemResetWarning,0830.1,5.00,000.00,023.2,022.0,000.0,031.6,024.6,9.7,0000.0,0010.61,0004.36,0003.80
2023-12-31 06:15:00,SystemResetWarning,0830.1,4.99,000.00,023.2,022.0,000.0,031.6,024.6,9.7,0000.0,0011.20,0004.38,0003.80
2023-12-31 06:16:00,SystemResetWarning,0830.1,5.00,000.00,023.2,022.0,000.0,031.6,024.6,9.7,0000.0,0011.87,0004.41,0003.82
2023-12-31 06:17:00,SystemResetWarning,0830.1,5.00,000.00,023.2,022.0,000.0,031.6,024.6,9.7,0000.0,0012.33,0004.45,0003.84
2023-12-31 06:18:00,SystemResetWarning,0830.1,5.00,000.00,023.2,021.9,000.0,031.6,024.6,9.7,0000.0,0012.42,0004.46,0003.85
2023-12-31 06:19:00,SystemResetWarning,0830.1,5.00,000.00,023.2,021.9,000.0,031.6,024.6,9.7,0000.0,0012.75,0004.47,0003.86
2023-12-31 06:20:00,SystemResetWarning,0830.0,4.99,000.00,023.2,021.9,000.0,031.6,024.6,9.7,0000.0,0013.34,0004.51,0003.87
2023-12-31 06:21:00,SystemResetWarning,0830.0,5.00,000.00,023.2,021.9,000.0,031.6,024.6,9.7,0000.0,0013.46,0004.52,0003.89
2023-12-31 06:22:00,SystemResetWarning,0830.1,5.00,000.00,023.2,021.9,000.0,031.6,024.6,9.7,0000.0,0014.10,0004.51,0003.89
2023-12-31 06:23:00,SystemResetWarning,0830.0,5.00,000.00,023.2,021.9,000.0,031.5,024.6,9.7,0000.0,0013.55,0004.51,0003.90
2023-12-31 06:24:00,SystemResetWarning,0830.0,5.00,000.00,023.2,021.9,000.0,031.5,024.6,9.8,0000.0,0013.53,0004.51,0003.92
2023-12-31 06:25:00,SystemResetWarning,0830.0,5.00,000.00,023.2,021.9,000.0,031.5,024.6,9.8,0000.0,0014.06,0004.49,0003.93
2023-12-31 06:26:00,SystemResetWarning,0830.0,5.01,000.00,023.1,021.8,000.0,031.5,024.5,9.8,0000.0,0013.31,0004.43,0003.93
2023-12-31 06:27:00,SystemResetWarning,0830.0,5.00,000.00,023.1,021.8,000.0,031.5,024.5,9.8,0000.0,0012.99,0004.40,0003.92
2023-12-31 06:28:00,SystemResetWarning,0830.0,5.01,000.00,023.1,021.8,000.0,031.5,024.5,9.8,0000.0,0012.35,0004.37,0003.91
2023-12-31 06:29:00,SystemResetWarning,0830.0,5.00,000.00,023.1,021.8,000.0,031.5,024.5,9.8,0000.0,0012.19,0004.35,0003.90
2023-12-31 06:30:00,SystemResetWarning,0830.0,5.00,000.00,023.1,021.8,000.0,031.5,024.5,9.9,0000.0,0011.81,0004.34,0003.89
2023-12-31 06:31:00,SystemResetWarning,0830.0,5.00,000.00,023.1,021.8,000.0,031.5,024.5,9.9,0000.0,0012.33,0004.32,0003.89
2023-12-31 06:32:00,SystemResetWarning,0830.1,4.99,000.00,023.1,021.8,000.0,031.5,024.5,9.9,0000.0,0012.15,0004.32,0003.88
2023-12-31 06:33:00,SystemResetWarning,0830.0,4.99,000.00,023.1,021.8,000.0,031.5,024.5,9.9,0000.0,0011.59,0004.33,0003.87
2023-12-31 06:34:00,SystemResetWarning,0830.0,5.00,000.00,023.1,021.8,000.0,031.5,024.5,9.9,0000.0,0011.11,0004.35,0003.87
2023-12-31 06:35:00,SystemResetWarning,0830.1,5.01,000.00,023.1,021.8,000.0,031.4,024.5,9.9,0000.0,0011.69,0004.35,0003.86
2023-12-31 06:36:00,SystemResetWarning,0830.0,5.00,000.00,023.1,021.7,000.0,031.4,024.5,9.9,0000.0,0011.11,0004.31,0003.84
2023-12-31 06:37:00,SystemResetWarning,0830.0,5.00,000.00,023.0,021.7,000.0,031.4,024.4,9.9,0000.0,0011.13,0004.32,0003.83
2023-12-31 06:38:00,SystemResetWarning,0830.0,5.00,000.00,023.0,021.7,000.0,031.4,024.4,9.9,0000.0,0010.72,0004.31,0003.81
2023-12-31 06:39:00,SystemResetWarning,0830.0,5.00,000.00,023.0,021.7,000.0,031.4,024.4,9.9,0000.0,0009.93,0004.30,0003.80
2023-12-31 06:40:00,SystemResetWarning,0830.0,5.00,000.00,023.0,021.7,000.0,031.4,024.4,10.0,0000.0,0009.87,0004.29,0003.79
2023-12-31 06:41:00,SystemResetWarning,0830.0,5.00,000.00,023.0,021.7,000.0,031.4,024.4,10.0,0000.0,0010.07,0004.28,0003.78
2023-12-31 06:42:00,SystemResetWarning,0830.1,5.00,000.00,023.0,021.7,000.0,031.4,024.4,10.0,0000.0,0009.30,0004.25,0003.76
2023-12-31 06:43:00,SystemResetWarning,0830.1,5.00,000.00,023.0,021.7,000.0,031.4,024.4,10.0,0000.0,0009.01,0004.25,0003.74
2023-12-31 06:44:00,SystemResetWarning,0830.0,5.00,000.00,023.0,021.7,000.0,031.4,024.4,9.9,0000.0,0009.06,0004.29,0003.72
2023-12-31 06:45:00,SystemResetWarning,0830.0,5.00,000.00,023.0,021.7,000.0,031.4,024.3,9.9,0000.0,0009.19,0004.26,0003.71
2023-12-31 06:46:00,SystemResetWarning,0830.0,5.00,000.00,023.0,021.7,000.0,031.4,024.3,10.0,0000.0,0008.61,0004.25,0003.70
2023-12-31 06:47:00,SystemResetWarning,0830.0,4.99,000.00,023.0,021.7,000.0,031.3,024.3,9.9,0000.0,0008.90,0004.30,0003.70
2023-12-31 06:48:00,SystemResetWarning,0830.0,5.00,000.00,022.9,021.7,000.0,031.3,024.3,10.0,0000.0,0008.78,0004.34,0003.70
2023-12-31 06:49:00,SystemResetWarning,0830.0,5.00,000.00,022.9,021.7,000.0,031.3,024.3,10.0,0000.0,0008.93,0004.35,0003.71
2023-12-31 06:50:00,SystemResetWarning,0830.0,5.00,000.00,022.9,021.6,000.0,031.3,024.3,10.0,0000.0,0008.98,0004.35,0003.70
2023-12-31 06:51:00,SystemResetWarning,0830.0,5.00,000.00,022.9,021.6,000.0,031.3,024.3,10.1,0000.0,0009.01,0004.34,0003.69
2023-12-31 06:52:00,SystemResetWarning,0830.0,5.00,000.00,022.9,021.6,000.0,031.3,024.3,10.1,0000.0,0008.82,0004.36,0003.69
2023-12-31 06:53:00,SystemResetWarning,0830.1,5.01,000.00,022.9,021.6,000.0,031.3,024.3,10.1,0000.0,0008.91,0004.37,0003.69
2023-12-31 06:54:00,SystemResetWarning,0830.0,5.01,000.00,022.9,021.6,000.0,031.3,024.3,10.1,0000.0,0008.84,0004.38,0003.69
2023-12-31 06:55:00,SystemResetWarning,0830.0,5.01,000.00,022.9,021.6,000.0,031.3,024.2,10.2,0000.0,0008.61,0004.31,0003.69
2023-12-31 06:56:00,SystemResetWarning,0830.0,4.99,000.00,022.9,021.6,000.0,031.3,024.3,10.2,0000.0,0008.72,0004.30,0003.70
2023-12-31 06:57:00,SystemResetWarning,0830.0,5.00,000.00,022.9,021.6,000.0,031.3,024.3,10.2,0000.0,0009.94,0004.30,0003.69
2023-12-31 06:58:00,SystemResetWarning,0829.9,5.00,000.00,022.9,021.6,000.0,031.2,024.3,10.2,0000.0,0009.63,0004.26,0003.67
2023-12-31 06:59:00,SystemResetWarning,0830.0,5.00,000.00,022.9,021.6,000.0,031.2,024.3,10.1,0000.0,0009.54,0004.21,0003.66
